• In Czech Republic
  • List of Countries
  • For 7 days
  • Water Temperature
  • Satellite Maps
  • Weather Map
  • Weather Widgets
  • user-avatar
    Login

    Hourly Weather Naklo

    Today, 21 September, Friday

    Time Temperature Precipitation Wind Pressure Humidity
    00:00 +18°C° 0 mm 1 mps 747 mmHg 75%
    01:00 +18°C° 0 mm 1 mps 747 mmHg 77%
    02:00 +16°C° 0 mm 1 mps 747 mmHg 78%
    03:00 +16°C° 0 mm 1 mps 747 mmHg 79%
    04:00 +16°C° 0 mm 1 mps 747 mmHg 80%
    05:00 +16°C° 0 mm 1 mps 747 mmHg 81%
    06:00 +18°C° 0 mm 1 mps 747 mmHg 80%
    07:00 +18°C° 0 mm 1 mps 747 mmHg 78%
    08:00 +18°C° 0 mm 2 mps 747 mmHg 76%
    09:00 +20°C° 0 mm 2 mps 747 mmHg 69%
    10:00 +23°C° 0 mm 2 mps 747 mmHg 63%
    11:00 +25°C° 0 mm 2 mps 746 mmHg 56%
    12:00 +26°C° 0 mm 2 mps 746 mmHg 52%
    13:00 +27°C° 0 mm 3 mps 745 mmHg 49%
    14:00 +28°C° 0 mm 3 mps 745 mmHg 45%
    15:00 +27°C° 0 mm 3 mps 745 mmHg 49%
    16:00 +27°C° 0 mm 2 mps 744 mmHg 53%
    17:00 +26°C° 0 mm 2 mps 744 mmHg 57%
    18:00 +24°C° 0 mm 3 mps 744 mmHg 61%
    19:00 +21°C° 0 mm 3 mps 744 mmHg 65%
    20:00 +19°C° 0 mm 3 mps 744 mmHg 69%
    21:00 +19°C° 0 mm 3 mps 744 mmHg 69%
    22:00 +19°C° 0 mm 3 mps 744 mmHg 68%
    23:00 +18°C° 0 mm 3 mps 744 mmHg 68%

    Tomorrow, 22 September, Saturday

    Time Temperature Precipitation Wind Pressure Humidity
    00:00 +18°C° 0 mm 3 mps 743 mmHg 66%
    01:00 +18°C° 0 mm 3 mps 743 mmHg 65%
    02:00 +18°C° 0 mm 4 mps 743 mmHg 63%
    03:00 +19°C° 0 mm 4 mps 743 mmHg 60%
    04:00 +19°C° 0 mm 4 mps 743 mmHg 57%
    05:00 +19°C° 0 mm 4 mps 743 mmHg 53%
    06:00 +17°C° 0.2 mm 5 mps 744 mmHg 62%
    07:00 +17°C° 0.2 mm 5 mps 745 mmHg 70%
    08:00 +16°C° 0.2 mm 5 mps 745 mmHg 79%
    09:00 +15°C° 0.6 mm 4 mps 746 mmHg 82%
    10:00 +14°C° 0.6 mm 4 mps 747 mmHg 85%
    11:00 +13°C° 0.6 mm 3 mps 747 mmHg 88%
    12:00 +12°C° 0.9 mm 3 mps 747 mmHg 88%
    13:00 +13°C° 0.9 mm 2 mps 747 mmHg 88%
    14:00 +13°C° 0.9 mm 2 mps 748 mmHg 88%
    15:00 +12°C° 0.5 mm 2 mps 747 mmHg 88%
    16:00 +12°C° 0.5 mm 2 mps 747 mmHg 88%
    17:00 +12°C° 0.5 mm 2 mps 747 mmHg 88%
    18:00 +12°C° 0 mm 2 mps 747 mmHg 89%
    19:00 +10°C° 0 mm 2 mps 748 mmHg 90%
    20:00 +9°C° 0 mm 2 mps 748 mmHg 90%
    21:00 +9°C° 0 mm 3 mps 748 mmHg 89%
    22:00 +9°C° 0 mm 3 mps 748 mmHg 88%
    23:00 +9°C° 0 mm 3 mps 748 mmHg 87%

    Day after tomorrow, 23 September, Sunday

    Time Temperature Precipitation Wind Pressure Humidity
    00:00 +9°C° 0 mm 3 mps 748 mmHg 87%
    01:00 +9°C° 0 mm 3 mps 748 mmHg 87%
    02:00 +9°C° 0 mm 3 mps 748 mmHg 87%
    03:00 +9°C° 0 mm 3 mps 748 mmHg 87%
    04:00 +8°C° 0 mm 3 mps 748 mmHg 87%
    05:00 +8°C° 0 mm 3 mps 749 mmHg 87%
    06:00 +8°C° 0 mm 4 mps 749 mmHg 85%
    07:00 +8°C° 0 mm 4 mps 749 mmHg 82%
    08:00 +10°C° 0 mm 4 mps 749 mmHg 80%
    09:00 +12°C° 0 mm 4 mps 749 mmHg 71%
    10:00 +14°C° 0 mm 5 mps 749 mmHg 63%
    11:00 +15°C° 0 mm 5 mps 749 mmHg 54%
    12:00 +16°C° 0 mm 5 mps 749 mmHg 52%
    13:00 +17°C° 0 mm 5 mps 749 mmHg 51%
    14:00 +17°C° 0 mm 5 mps 748 mmHg 49%
    15:00 +18°C° 0 mm 4 mps 748 mmHg 53%
    16:00 +17°C° 0 mm 4 mps 748 mmHg 58%
    17:00 +17°C° 0 mm 3 mps 747 mmHg 62%
    18:00 +16°C° 0 mm 3 mps 747 mmHg 66%
    19:00 +13°C° 0 mm 3 mps 747 mmHg 70%
    20:00 +12°C° 0 mm 3 mps 747 mmHg 75%
    21:00 +12°C° 0 mm 3 mps 746 mmHg 73%
    22:00 +12°C° 0 mm 4 mps 746 mmHg 71%
    23:00 +12°C° 0 mm 4 mps 745 mmHg 69%

    24 September, Monday

    Time Temperature Precipitation Wind Pressure Humidity
    00:00 +13°C° 0 mm 5 mps 744 mmHg 68%
    01:00 +13°C° 0 mm 5 mps 743 mmHg 68%
    02:00 +13°C° 0 mm 6 mps 742 mmHg 67%
    03:00 +14°C° 0 mm 7 mps 741 mmHg 63%
    04:00 +13°C° 0 mm 8 mps 740 mmHg 59%
    05:00 +15°C° 0 mm 8 mps 738 mmHg 55%
    06:00 +15°C° 0.1 mm 9 mps 737 mmHg 57%
    07:00 +16°C° 0.1 mm 9 mps 736 mmHg 60%
    08:00 +16°C° 0.1 mm 9 mps 735 mmHg 62%
    09:00 +16°C° 0.1 mm 10 mps 735 mmHg 64%
    10:00 +16°C° 0.1 mm 10 mps 734 mmHg 65%
    11:00 +16°C° 0.1 mm 11 mps 734 mmHg 66%
    12:00 +16°C° 0.4 mm 10 mps 734 mmHg 69%
    13:00 +16°C° 0.4 mm 10 mps 733 mmHg 72%
    14:00 +14°C° 0.4 mm 10 mps 733 mmHg 75%
    15:00 +13°C° 0.1 mm 11 mps 734 mmHg 72%
    16:00 +12°C° 0.1 mm 12 mps 735 mmHg 70%
    17:00 +10°C° 0.1 mm 13 mps 736 mmHg 67%
    18:00 +9°C° 0.1 mm 12 mps 737 mmHg 68%
    19:00 +9°C° 0.1 mm 11 mps 739 mmHg 68%
    20:00 +9°C° 0.1 mm 11 mps 740 mmHg 69%
    21:00 +8°C° 0.1 mm 10 mps 741 mmHg 71%
    22:00 +8°C° 0.1 mm 10 mps 742 mmHg 74%
    23:00 +8°C° 0.1 mm 10 mps 743 mmHg 76%

    25 September, Tuesday

    Time Temperature Precipitation Wind Pressure Humidity
    00:00 +7°C° 0.2 mm 10 mps 744 mmHg 76%
    01:00 +6°C° 0.2 mm 10 mps 745 mmHg 76%
    02:00 +6°C° 0.2 mm 10 mps 746 mmHg 75%
    03:00 +5°C° 0.2 mm 9 mps 746 mmHg 75%
    04:00 +5°C° 0.2 mm 9 mps 747 mmHg 75%
    05:00 +5°C° 0.2 mm 8 mps 747 mmHg 75%
    06:00 +5°C° 0.2 mm 8 mps 748 mmHg 75%
    07:00 +5°C° 0.2 mm 8 mps 749 mmHg 76%
    08:00 +5°C° 0.2 mm 8 mps 749 mmHg 77%
    09:00 +5°C° 0.1 mm 8 mps 750 mmHg 73%
    10:00 +6°C° 0.1 mm 9 mps 750 mmHg 69%
    11:00 +7°C° 0.1 mm 9 mps 751 mmHg 66%
    12:00 +8°C° 0.3 mm 9 mps 751 mmHg 63%
    13:00 +9°C° 0.3 mm 8 mps 751 mmHg 60%
    14:00 +10°C° 0.3 mm 8 mps 752 mmHg 57%
    15:00 +10°C° 0.1 mm 7 mps 752 mmHg 56%
    16:00 +10°C° 0.1 mm 6 mps 752 mmHg 55%
    17:00 +10°C° 0.1 mm 5 mps 752 mmHg 54%
    18:00 +9°C° 0 mm 5 mps 752 mmHg 59%
    19:00 +8°C° 0 mm 5 mps 752 mmHg 64%
    20:00 +7°C° 0 mm 4 mps 752 mmHg 69%
    21:00 +6°C° 0 mm 5 mps 751 mmHg 67%
    22:00 +6°C° 0 mm 5 mps 751 mmHg 66%
    23:00 +5°C° 0 mm 6 mps 750 mmHg 65%

    26 September, Wednesday

    Time Temperature Precipitation Wind Pressure Humidity
    00:00 +5°C° 0.9 mm 6 mps 750 mmHg 71%
    01:00 +5°C° 0.9 mm 7 mps 749 mmHg 77%
    02:00 +5°C° 0.9 mm 7 mps 749 mmHg 84%
    03:00 +5°C° 0.9 mm 7 mps 748 mmHg 85%
    04:00 +5°C° 0.9 mm 6 mps 748 mmHg 87%
    05:00 +5°C° 0.9 mm 6 mps 748 mmHg 89%
    06:00 +5°C° 0.3 mm 6 mps 748 mmHg 89%
    07:00 +5°C° 0.3 mm 6 mps 749 mmHg 88%
    08:00 +6°C° 0.3 mm 5 mps 749 mmHg 88%
    09:00 +6°C° 0.4 mm 5 mps 750 mmHg 88%
    10:00 +7°C° 0.4 mm 5 mps 751 mmHg 87%
    11:00 +7°C° 0.4 mm 5 mps 751 mmHg 87%
    12:00 +9°C° 0.1 mm 5 mps 752 mmHg 80%
    13:00 +10°C° 0.1 mm 5 mps 752 mmHg 73%
    14:00 +12°C° 0.1 mm 5 mps 753 mmHg 66%
    15:00 +12°C° 0.1 mm 4 mps 753 mmHg 67%
    16:00 +12°C° 0.1 mm 4 mps 753 mmHg 68%
    17:00 +12°C° 0.1 mm 3 mps 753 mmHg 69%
    18:00 +10°C° 0 mm 3 mps 754 mmHg 74%
    19:00 +9°C° 0 mm 3 mps 754 mmHg 79%
    20:00 +8°C° 0 mm 2 mps 754 mmHg 85%
    21:00 +7°C° 0 mm 2 mps 755 mmHg 85%
    22:00 +7°C° 0 mm 2 mps 755 mmHg 85%
    23:00 +7°C° 0 mm 2 mps 755 mmHg 85%
    Show more